Location: G�ppingen
(48.7089°N, 9.6563°E)
Time: 13:26:15
(UTC+01:00)

Envisat - Visible Passes

Search period start: 19 November 2019 00:00
Search period end: 29 November 2019 00:00
Orbit: 764 x 766 km, 98.1° (Epoch: 19 November)

Date Brightness Start Highest point End Pass type
(mag) Time Alt. Az. Time Alt. Az. Time Alt. Az.
19 Nov 4.0 07:00:00 10° NNE 07:05:00 54° E 07:09:57 10° S visible
19 Nov 3.1 18:18:18 10° SSE 18:23:24 81° WSW 18:28:31 10° NNW visible
19 Nov 6.1 20:01:25 10° WSW 20:03:15 12° W 20:05:05 10° WNW visible
20 Nov 5.4 06:23:42 10° NE 06:27:59 27° E 06:32:14 10° SSE visible
20 Nov 3.1 17:41:48 10° SE 17:46:42 51° ENE 17:51:37 10° N visible
20 Nov 5.2 19:21:53 10° SSW 19:26:00 24° W 19:30:07 10° NW visible
21 Nov 6.2 05:48:25 10° ENE 05:50:46 13° E 05:53:05 10° ESE visible
21 Nov 3.9 17:05:59 10° ESE 17:10:11 27° ENE 17:14:23 10° N visible
21 Nov 3.9 18:44:03 10° S 18:48:57 49° W 18:53:54 10° NNW visible
22 Nov 4.4 06:48:48 10° NNE 06:53:40 43° E 06:58:30 10° S visible
22 Nov 2.9 18:07:02 10° SSE 18:12:07 83° ENE 18:17:15 10° NNW visible
22 Nov 5.9 19:48:58 10° WSW 19:51:48 15° W 19:54:39 10° NW visible
23 Nov 5.7 06:12:41 10° NE 06:16:36 22° E 06:20:28 10° SE visible
23 Nov 3.4 17:30:44 10° SE 17:35:29 42° ENE 17:40:15 10° N visible
23 Nov 4.9 19:10:11 10° SSW 19:14:37 30° W 19:19:05 10° NNW visible
24 Nov 6.5 05:38:43 10° ENE 05:39:19 10° E 05:39:54 10° E visible
24 Nov 3.5 18:32:38 10° S 18:37:39 61° W 18:42:42 10° NNW visible
25 Nov 4.8 06:37:39 10° NNE 06:42:19 35° E 06:46:57 10° SSE visible
25 Nov 2.9 17:55:50 10° SSE 18:00:52 68° ENE 18:05:56 10° N visible
25 Nov 5.6 19:36:54 10° SW 19:40:23 18° W 19:43:53 10° NW visible
26 Nov 5.9 06:01:48 10° NE 06:05:12 18° E 06:08:34 10° SE visible
26 Nov 3.6 17:19:43 10° SE 17:24:17 34° ENE 17:28:50 10° N visible
26 Nov 4.5 18:58:35 10° SSW 19:03:16 37° W 19:07:59 10° NNW visible
27 Nov 3.8 07:02:55 10° NNE 07:07:58 58° E 07:12:57 10° S visible
27 Nov 3.2 18:21:17 10° S 18:26:21 75° WSW 18:31:27 10° NNW visible
27 Nov 6.2 20:05:05 10° W 20:06:15 11° W 20:07:26 10° WNW visible
28 Nov 5.2 06:26:34 10° NE 06:30:58 29° E 06:35:21 10° SSE visible
28 Nov 3.1 17:44:41 10° SSE 17:49:37 55° ENE 17:54:35 10° N visible
28 Nov 5.3 19:25:02 10° SW 19:28:59 23° W 19:32:58 10° NW visible
